Location: Haliburton Scout Reserve
(45.0900°N, 78.3200°W)
Time: 15:11:29
(UTC-04:00)

ISS - Visible Passes

Search period start: 24 March 2023 00:00
Search period end: 03 April 2023 00:00
Orbit: 414 x 422 km, 51.6° (Epoch: 24 March)

Date Brightness Start Highest point End Pass type
(mag) Time Alt. Az. Time Alt. Az. Time Alt. Az.
24 Mar -2.2 21:31:34 10° NW 21:34:30 28° N 21:34:30 28° N visible
25 Mar -2.1 20:43:34 10° NW 20:46:28 26° N 20:48:30 15° NE visible
25 Mar -0.9 22:20:24 10° NW 22:21:26 18° NW 22:21:26 18° NW visible
26 Mar -2.8 21:32:29 10° NW 21:35:24 41° N 21:35:24 41° N visible
27 Mar -2.6 20:44:30 10° NW 20:47:35 33° NNE 20:49:21 20° ENE visible
27 Mar -1.0 22:21:13 10° WNW 22:22:17 19° WNW 22:22:17 19° WNW visible
28 Mar -3.6 21:33:10 10° WNW 21:36:13 70° NW 21:36:13 70° NW visible
29 Mar -3.5 20:45:08 10° NW 20:48:27 56° NNE 20:50:09 25° E visible
29 Mar -0.9 22:22:14 10° W 22:23:05 15° W 22:23:05 15° W visible
30 Mar -2.9 21:33:54 10° WNW 21:37:02 40° SW 21:37:02 40° SW visible
31 Mar -3.6 20:45:41 10° WNW 20:49:00 66° SSW 20:51:01 22° SE visible
01 Apr -1.5 21:35:05 10° W 21:37:15 16° SW 21:37:58 15° SSW visible
02 Apr -2.0 20:46:23 10° W 20:49:13 26° SW 20:52:01 10° SSE visible
